TimeCST,TemperatureF,Dew PointF,Humidity,Sea Level PressureIn,VisibilityMPH,Wind Direction,Wind SpeedMPH,Gust SpeedMPH,PrecipitationIn,Events,Conditions,WindDirDegrees,DateUTC
12:15 AM,10.4,6.4,84,30.26,7.0,SSE,8.1,-,N/A,Snow,Light Snow,150,2013-12-25 06:15:00
12:35 AM,11.1,6.8,83,30.24,10.0,SSE,9.2,-,N/A,,Overcast,150,2013-12-25 06:35:00
12:55 AM,11.7,7.5,83,30.23,10.0,SSE,10.4,-,N/A,,Overcast,160,2013-12-25 06:55:00
1:15 AM,12.0,7.7,83,30.23,5.0,SSE,10.4,-,N/A,Snow,Light Snow,160,2013-12-25 07:15:00
1:35 AM,12.6,8.4,83,30.22,3.0,SSE,11.5,-,N/A,Snow,Light Snow,160,2013-12-25 07:35:00
1:55 AM,13.1,9.3,85,30.22,0.5,SSE,12.7,-,N/A,Snow,Light Snow,160,2013-12-25 07:55:00
2:15 AM,13.5,10.0,86,30.21,0.5,SSE,12.7,-,N/A,Snow,Light Snow,160,2013-12-25 08:15:00
2:35 AM,13.6,10.2,86,30.20,1.5,SSE,9.2,-,N/A,Snow,Light Snow,160,2013-12-25 08:35:00
2:55 AM,14.2,10.9,87,30.19,1.2,South,10.4,-,N/A,Snow,Light Snow,170,2013-12-25 08:55:00
3:15 AM,14.9,11.3,86,30.19,1.2,South,12.7,-,N/A,Snow,Light Snow,170,2013-12-25 09:15:00
3:35 AM,15.3,11.7,86,30.19,1.0,South,11.5,-,N/A,Snow,Light Snow,180,2013-12-25 09:35:00
3:55 AM,15.4,11.8,86,30.18,1.8,South,11.5,-,N/A,Snow,Light Snow,180,2013-12-25 09:55:00
4:15 AM,15.6,12.0,86,30.17,1.0,South,11.5,-,N/A,Snow,Light Snow,180,2013-12-25 10:15:00
4:35 AM,15.6,12.0,86,30.17,4.0,South,10.4,-,N/A,Snow,Light Snow,190,2013-12-25 10:35:00
4:55 AM,15.6,12.0,86,30.16,10.0,South,10.4,-,N/A,Snow,Light Snow,190,2013-12-25 10:55:00
5:15 AM,15.8,12.2,86,30.16,10.0,South,10.4,-,N/A,Snow,Light Snow,190,2013-12-25 11:15:00
5:35 AM,15.8,12.2,86,30.16,7.0,SSW,10.4,-,N/A,Snow,Light Snow,200,2013-12-25 11:35:00
5:55 AM,16.0,12.2,85,30.15,7.0,SSW,11.5,-,N/A,Snow,Light Snow,200,2013-12-25 11:55:00
6:15 AM,16.3,12.2,84,30.15,10.0,SSW,11.5,-,N/A,Snow,Light Snow,200,2013-12-25 12:15:00
6:35 AM,16.5,12.2,83,30.15,10.0,SSW,11.5,-,N/A,,Overcast,200,2013-12-25 12:35:00
6:55 AM,16.7,12.2,82,30.15,10.0,SSW,11.5,-,N/A,,Overcast,210,2013-12-25 12:55:00
7:15 AM,16.7,12.2,82,30.15,10.0,SSW,9.2,-,N/A,,Overcast,200,2013-12-25 13:15:00
7:35 AM,17.1,12.6,82,30.15,10.0,SSW,9.2,-,N/A,,Overcast,200,2013-12-25 13:35:00
7:55 AM,17.2,12.6,82,30.15,10.0,SW,9.2,-,N/A,,Overcast,220,2013-12-25 13:55:00
8:15 AM,17.4,12.7,82,30.15,7.0,SW,10.4,-,N/A,Snow,Light Snow,220,2013-12-25 14:15:00
8:35 AM,17.6,13.1,83,30.15,5.0,SW,9.2,-,N/A,Snow,Light Snow,220,2013-12-25 14:35:00
8:55 AM,17.6,13.1,83,30.15,4.0,SSW,10.4,-,N/A,Snow,Light Snow,210,2013-12-25 14:55:00
9:15 AM,17.6,13.1,83,30.15,7.0,SW,10.4,-,N/A,,Overcast,220,2013-12-25 15:15:00
9:35 AM,17.8,13.1,82,30.15,7.0,SW,11.5,-,N/A,,Overcast,220,2013-12-25 15:35:00
9:55 AM,18.0,13.1,81,30.15,4.0,SW,11.5,-,N/A,Snow,Light Snow,220,2013-12-25 15:55:00
10:15 AM,18.3,13.1,80,30.16,5.0,SW,12.7,-,N/A,,Haze,230,2013-12-25 16:15:00
10:35 AM,18.5,13.1,79,30.15,4.0,WSW,11.5,-,N/A,Snow,Light Snow,240,2013-12-25 16:35:00
10:55 AM,18.3,12.9,79,30.15,4.0,WSW,12.7,-,N/A,Snow,Light Snow,240,2013-12-25 16:55:00
11:15 AM,18.5,13.1,79,30.14,7.0,WSW,10.4,-,N/A,,Overcast,240,2013-12-25 17:15:00
11:35 AM,18.7,12.6,77,30.13,10.0,SW,11.5,-,N/A,,Overcast,220,2013-12-25 17:35:00
11:55 AM,19.0,12.9,77,30.13,10.0,SW,10.4,-,N/A,,Overcast,230,2013-12-25 17:55:00
12:15 PM,19.0,13.3,78,30.12,7.0,SSW,9.2,-,N/A,,Overcast,210,2013-12-25 18:15:00
12:35 PM,19.2,14.2,81,30.11,2.0,SSW,8.1,-,N/A,Snow,Light Snow,210,2013-12-25 18:35:00
12:55 PM,19.4,14.4,81,30.10,3.0,SW,10.4,-,N/A,Snow,Light Snow,220,2013-12-25 18:55:00
1:15 PM,19.6,14.9,82,30.09,2.5,SW,8.1,-,N/A,Snow,Light Snow,220,2013-12-25 19:15:00
1:35 PM,19.8,15.4,83,30.09,1.8,SSW,6.9,-,N/A,Snow,Light Snow,200,2013-12-25 19:35:00
1:55 PM,19.9,15.8,84,30.08,2.0,SSW,8.1,-,N/A,Snow,Light Snow,200,2013-12-25 19:55:00
2:15 PM,19.9,15.8,84,30.08,2.5,SSW,6.9,-,N/A,Snow,Light Snow,200,2013-12-25 20:15:00
2:35 PM,20.1,16.2,85,30.08,3.0,SSW,8.1,-,N/A,Snow,Light Snow,210,2013-12-25 20:35:00
2:55 PM,20.7,16.7,85,30.09,3.0,SSW,8.1,-,N/A,Snow,Light Snow,210,2013-12-25 20:55:00
3:15 PM,20.8,16.7,84,30.08,3.0,SSW,8.1,-,N/A,Snow,Light Snow,210,2013-12-25 21:15:00
3:35 PM,20.8,17.1,85,30.08,4.0,SSW,8.1,-,N/A,Snow,Light Snow,210,2013-12-25 21:35:00
3:55 PM,20.8,17.4,87,30.09,2.5,SSW,6.9,-,N/A,Snow,Light Snow,210,2013-12-25 21:55:00
4:15 PM,20.7,17.6,88,30.09,4.0,SW,6.9,-,N/A,Snow,Light Snow,220,2013-12-25 22:15:00
4:35 PM,20.7,17.6,88,30.08,5.0,SSW,6.9,-,N/A,Snow,Light Snow,210,2013-12-25 22:35:00
4:55 PM,20.7,17.6,88,30.08,2.5,South,6.9,-,N/A,Snow,Light Snow,190,2013-12-25 22:55:00
5:15 PM,20.5,18.0,90,30.07,2.5,SSW,6.9,-,N/A,Snow,Light Snow,200,2013-12-25 23:15:00
5:35 PM,20.3,18.0,91,30.07,1.8,SSW,6.9,-,N/A,Snow,Light Snow,210,2013-12-25 23:35:00
5:55 PM,20.3,18.1,91,30.07,2.5,SSW,5.8,-,N/A,Snow,Light Snow,200,2013-12-25 23:55:00
6:15 PM,20.3,18.3,92,30.07,3.0,SSW,6.9,-,N/A,Snow,Light Snow,200,2013-12-26 00:15:00
6:35 PM,20.3,18.3,92,30.06,4.0,SSW,6.9,-,N/A,Snow,Light Snow,200,2013-12-26 00:35:00
6:55 PM,20.3,18.3,92,30.06,4.0,SSW,5.8,-,N/A,,Overcast,200,2013-12-26 00:55:00
7:15 PM,20.5,18.3,91,30.06,4.0,SSW,5.8,-,N/A,,Overcast,210,2013-12-26 01:15:00
7:35 PM,20.8,18.5,91,30.06,5.0,SW,8.1,-,N/A,,Overcast,220,2013-12-26 01:35:00
7:55 PM,21.0,18.3,89,30.06,5.0,SW,8.1,-,N/A,,Overcast,220,2013-12-26 01:55:00
8:15 PM,21.2,18.3,89,30.05,5.0,SW,8.1,-,N/A,,Overcast,220,2013-12-26 02:15:00
8:35 PM,21.4,18.3,88,30.04,5.0,SW,10.4,-,N/A,,Overcast,220,2013-12-26 02:35:00
8:55 PM,21.0,17.6,87,30.04,7.0,SSW,9.2,-,N/A,,Overcast,210,2013-12-26 02:55:00
9:15 PM,21.0,17.8,87,30.04,7.0,SW,8.1,-,N/A,,Overcast,230,2013-12-26 03:15:00
9:35 PM,21.6,18.5,88,30.04,5.0,SW,9.2,-,N/A,,Overcast,230,2013-12-26 03:35:00
9:55 PM,21.7,18.5,87,30.04,7.0,SW,8.1,-,N/A,,Overcast,230,2013-12-26 03:55:00
10:15 PM,22.1,19.0,88,30.04,5.0,WSW,6.9,-,N/A,Snow,Light Snow,240,2013-12-26 04:15:00
10:35 PM,22.1,19.2,89,30.04,5.0,West,6.9,-,N/A,,Overcast,260,2013-12-26 04:35:00
10:55 PM,22.5,19.2,87,30.04,5.0,West,9.2,-,N/A,,Overcast,260,2013-12-26 04:55:00
11:15 PM,22.5,17.6,82,30.04,7.0,West,6.9,-,N/A,,Overcast,280,2013-12-26 05:15:00
11:35 PM,22.1,15.6,76,30.05,10.0,WNW,6.9,16.1,N/A,,Overcast,290,2013-12-26 05:35:00
11:55 PM,21.7,13.5,70,30.05,10.0,WNW,5.8,16.1,N/A,,Overcast,290,2013-12-26 05:55:00